Oakdale, LA

4:11 AM CDT on August 31, 2016 (GMT -0500)
Oakdale

Weather History for KACP - October, 2012

Change the Weather History Date:

Saturday, October 27, 2012

  Actual Average (KPOE) Record (KPOE)
Temperature  
Mean Temperature 52 °F -  
Max Temperature 62 °F 73 °F 90 °F (2010)
Min Temperature 41 °F 54 °F 41 °F (1997)
Degree Days  
Heating Degree Days 14    
Growing Degree Days 2 (Base 50)    
Moisture  
Dew Point 41 °F    
Average Humidity 72    
Maximum Humidity 100    
Minimum Humidity 37    
Precipitation  
Precipitation 0.00 in - - ()
Sea Level Pressure  
Sea Level Pressure 30.11 in    
Wind  
Wind Speed 10 mph (NNW)    
Max Wind Speed 15 mph    
Max Gust Speed 23 mph    
Visibility 10 miles    
Events      
Averages and records for this station are not official NWS values.
T = Trace of Precipitation, MM = Missing Value Source: NWS Daily Summary

Daily Weather History Graph

Daily Weather History Graph

Search for Another Location

Airport or City:

Trip Planner

Search our weather history database for the weather conditions in past years. The results will help you decide how hot, cold, wet, or windy it might be!

Date:

Astronomy

Oct. 27, 2012 Rise Set
Actual Time 7:22 AM CDT 6:26 PM CDT
Civil Twilight 6:57 AM CDT 6:51 PM CDT
Nautical Twilight 6:29 AM CDT 7:19 PM CDT
Astronomical Twilight 6:00 AM CDT 7:47 PM CDT
Moon 5:08 PM CDT (10/27) 5:23 AM CDT (10/27)
Length of Visible Light 11h 53m
Length of Day
11h 04m
Waxing Gibbous, 96% of the Moon is Illuminated
Oct 27
Waxing Gibbous
Oct 29
Full
Nov 6
Last Quarter
Nov 13
New
Nov 20
First Quarter

Hourly Weather History & Observations

Time (CDT) Temp. Windchill Dew Point Humidity Pressure Visibility Wind Dir Wind Speed Gust Speed Precip Events Conditions
12:15 AM 50.0 °F - 50.0 °F 100% 30.15 in 10.0 mi North 10.4 mph 19.6 mph N/A   Overcast
12:35 AM 50.0 °F - 50.0 °F 100% 30.15 in 10.0 mi North 13.8 mph 18.4 mph N/A   Overcast
12:55 AM 50.0 °F - 50.0 °F 100% 30.15 in 10.0 mi North 8.1 mph 17.3 mph N/A   Overcast
1:15 AM 50.0 °F - 50.0 °F 100% 30.14 in 10.0 mi North 10.4 mph 16.1 mph N/A   Overcast
1:55 AM 50.0 °F - 42.8 °F 76% 30.13 in 10.0 mi North 12.7 mph 18.4 mph N/A   Overcast
2:15 AM 50.0 °F - 42.8 °F 76% 30.13 in 10.0 mi North 9.2 mph 17.3 mph N/A   Overcast
2:35 AM 50.0 °F - 41.0 °F 71% 30.12 in 10.0 mi North 12.7 mph 19.6 mph N/A   Overcast
2:55 AM 50.0 °F - 41.0 °F 71% 30.12 in 10.0 mi North 9.2 mph 20.7 mph N/A   Overcast
3:35 AM 48.2 °F - 42.8 °F 82% 30.10 in 10.0 mi North 10.4 mph - N/A   Scattered Clouds
3:55 AM 48.2 °F - 42.8 °F 82% 30.10 in 10.0 mi North 12.7 mph - N/A   Scattered Clouds
4:15 AM 48.2 °F - 42.8 °F 82% 30.10 in 10.0 mi North 9.2 mph 16.1 mph N/A   Scattered Clouds
4:35 AM 46.4 °F 42.4 °F 44.6 °F 93% 30.10 in 10.0 mi North 8.1 mph 16.1 mph N/A   Scattered Clouds
4:55 AM 46.4 °F 41.5 °F 44.6 °F 93% 30.10 in 10.0 mi North 10.4 mph - N/A   Mostly Cloudy
5:15 AM 46.4 °F 41.9 °F 46.4 °F 100% 30.10 in 10.0 mi North 9.2 mph - N/A   Scattered Clouds
5:35 AM 46.4 °F 42.4 °F 46.4 °F 100% 30.10 in 10.0 mi North 8.1 mph - N/A   Scattered Clouds
5:55 AM 46.4 °F 41.5 °F 46.4 °F 100% 30.10 in 10.0 mi North 10.4 mph - N/A   Scattered Clouds
6:15 AM 46.4 °F 42.4 °F 42.8 °F 87% 30.11 in 10.0 mi North 8.1 mph 16.1 mph N/A   Scattered Clouds
6:55 AM 46.4 °F 42.4 °F 41.0 °F 81% 30.12 in 10.0 mi North 8.1 mph - N/A   Scattered Clouds
7:15 AM 46.4 °F 41.9 °F 41.0 °F 81% 30.13 in 10.0 mi North 9.2 mph - N/A   Scattered Clouds
7:35 AM 46.4 °F 42.4 °F 42.8 °F 87% 30.13 in 10.0 mi North 8.1 mph - N/A   Scattered Clouds
7:55 AM 46.4 °F 41.5 °F 42.8 °F 87% 30.14 in 10.0 mi North 10.4 mph - N/A   Scattered Clouds
8:15 AM 46.4 °F 42.4 °F 42.8 °F 87% 30.15 in 10.0 mi North 8.1 mph - N/A   Scattered Clouds
8:35 AM 48.2 °F - 44.6 °F 87% 30.15 in 10.0 mi North 11.5 mph 17.3 mph N/A   Scattered Clouds
8:55 AM 48.2 °F - 41.0 °F 76% 30.16 in 10.0 mi North 13.8 mph 20.7 mph N/A   Scattered Clouds
9:15 AM 50.0 °F - 41.0 °F 71% 30.17 in 10.0 mi North 6.9 mph 18.4 mph N/A   Scattered Clouds
9:35 AM 50.0 °F - 41.0 °F 71% 30.16 in 10.0 mi North 15.0 mph 20.7 mph N/A   Scattered Clouds
9:55 AM 51.8 °F - 41.0 °F 67% 30.16 in 10.0 mi North 15.0 mph 20.7 mph N/A   Scattered Clouds
10:15 AM 53.6 °F - 41.0 °F 62% 30.16 in 10.0 mi NNW 11.5 mph 16.1 mph N/A   Clear
10:35 AM 53.6 °F - 41.0 °F 62% 30.17 in 10.0 mi NNW 15.0 mph 18.4 mph N/A   Clear
10:55 AM 53.6 °F - 41.0 °F 62% 30.16 in 10.0 mi NNW 13.8 mph 18.4 mph N/A   Clear
11:15 AM 53.6 °F - 41.0 °F 62% 30.16 in 10.0 mi North 9.2 mph 23.0 mph N/A   Clear
11:35 AM 55.4 °F - 41.0 °F 58% 30.15 in 10.0 mi North 11.5 mph 21.9 mph N/A   Clear
11:55 AM 57.2 °F - 41.0 °F 55% 30.15 in 10.0 mi NNW 10.4 mph 19.6 mph N/A   Clear
12:15 PM 59.0 °F - 41.0 °F 51% 30.14 in 10.0 mi NNW 11.5 mph 18.4 mph N/A   Clear
12:35 PM 59.0 °F - 39.2 °F 48% 30.13 in 10.0 mi NNE 9.2 mph 21.9 mph N/A   Clear
12:55 PM 59.0 °F - 39.2 °F 48% 30.13 in 10.0 mi NNW 12.7 mph 20.7 mph N/A   Clear
1:15 PM 59.0 °F - 39.2 °F 48% 30.11 in 10.0 mi NNW 15.0 mph 20.7 mph N/A   Clear
1:35 PM 60.8 °F - 39.2 °F 45% 30.10 in 10.0 mi NNW 15.0 mph 21.9 mph N/A   Clear
1:55 PM 60.8 °F - 39.2 °F 45% 30.09 in 10.0 mi NNW 12.7 mph 18.4 mph N/A   Clear
2:15 PM 60.8 °F - 37.4 °F 42% 30.08 in 10.0 mi NNW 13.8 mph 21.9 mph N/A   Clear
2:35 PM 60.8 °F - 37.4 °F 42% 30.07 in 10.0 mi NW 12.7 mph 20.7 mph N/A   Clear
2:55 PM 62.6 °F - 35.6 °F 37% 30.06 in 10.0 mi North 11.5 mph 18.4 mph N/A   Clear
3:15 PM 62.6 °F - 35.6 °F 37% 30.05 in 10.0 mi North 9.2 mph 21.9 mph N/A   Clear
3:35 PM 62.6 °F - 37.4 °F 39% 30.05 in 10.0 mi NNE 12.7 mph 17.3 mph N/A   Clear
3:55 PM 62.6 °F - 35.6 °F 37% 30.05 in 10.0 mi NW 11.5 mph - N/A   Clear
4:15 PM 62.6 °F - 35.6 °F 37% 30.05 in 10.0 mi NNW 11.5 mph 17.3 mph N/A   Clear
4:35 PM 62.6 °F - 35.6 °F 37% 30.04 in 10.0 mi NNW 9.2 mph - N/A   Clear
4:55 PM 60.8 °F - 35.6 °F 39% 30.04 in 10.0 mi North 9.2 mph 16.1 mph N/A   Clear
5:15 PM 60.8 °F - 35.6 °F 39% 30.03 in 10.0 mi NNW 9.2 mph - N/A   Clear
5:35 PM 59.0 °F - 35.6 °F 42% 30.04 in 10.0 mi NNW 8.1 mph - N/A   Clear
5:55 PM 59.0 °F - 37.4 °F 45% 30.04 in 10.0 mi NNW 8.1 mph - N/A   Clear
6:15 PM 55.4 °F - 39.2 °F 54% 30.05 in 10.0 mi NNW 4.6 mph - N/A   Clear
6:35 PM 53.6 °F - 39.2 °F 58% 30.06 in 10.0 mi NNW 5.8 mph - N/A   Clear
6:55 PM 50.0 °F - 41.0 °F 71% 30.06 in 10.0 mi NNW 3.5 mph - N/A   Clear
7:15 PM 48.2 °F - 41.0 °F 76% 30.07 in 10.0 mi NNW 4.6 mph - N/A   Clear
7:35 PM 48.2 °F - 42.8 °F 82% 30.09 in 10.0 mi NW 3.5 mph - N/A   Clear
7:55 PM 46.4 °F - 44.6 °F 93% 30.10 in 10.0 mi Calm Calm - N/A   Clear
8:15 PM 44.6 °F - 44.6 °F 100% 30.10 in 10.0 mi Calm Calm - N/A   Clear
8:35 PM 44.6 °F - 44.6 °F 100% 30.11 in 10.0 mi Calm Calm - N/A   Clear
8:55 PM - - - N/A% 30.12 in 10.0 mi Calm Calm - N/A   Clear
9:15 PM - - - N/A% 30.12 in 10.0 mi Calm Calm - N/A   Clear
9:35 PM - - - N/A% 30.13 in 10.0 mi Calm Calm - N/A   Clear
9:55 PM 42.8 °F - 42.8 °F 100% 30.14 in 10.0 mi Calm Calm - N/A   Clear
10:15 PM 42.8 °F - 42.8 °F 100% 30.14 in 10.0 mi Calm Calm - N/A   Clear
10:35 PM 42.8 °F - 42.8 °F 100% 30.15 in 10.0 mi Calm Calm - N/A   Clear
10:55 PM 41.0 °F - 41.0 °F 100% 30.15 in 10.0 mi Calm Calm - N/A   Clear
11:15 PM 41.0 °F - 41.0 °F 100% 30.15 in 10.0 mi Calm Calm - N/A   Clear
11:55 PM 41.0 °F - 41.0 °F 100% 30.15 in 10.0 mi Calm Calm - N/A   Clear